Погода в Выборге

Хотите узнать прогноз погоды в Выборге? Тогда Вам сюда: Погода в Выборге

Поиск расширенной информации на нашем сайте:

Полезная информация:

Новости сайта



14.11.2019
Обновлён Долгосрочный прогноз погоды по России и другим странам хСССР на ноябрь-декабрь 2019 года.
Опубликованы прогностические карты: Предварительный прогноз на декабрь 2019 года, Предварительный прогноз на январь 2020 года, Предварительная схема синоптических процессов на декабрь 2019 г..

11.11.2019
Обновлены Долгосрочный прогноз погоды по России и другим странам хСССР на ноябрь-декабрь 2019 года и Предварительный прогноз на зиму 2019/2020 годов

04.11.2019
Опубликован Долгосрочный прогноз погоды по России и другим странам хСССР на ноябрь 2019 года
Сравнение прогнозируемой аномалии приземной температуры воздуха на ноябрь 2019 года по разным моделям
Предварительный прогноз на зиму 2019/2020 года




Погода в Выборге - сегодня

Время (UTC), дата Ветер
(°,м/с) 
Видим.   Явления Облачность Т
(°С)
Тd
(°С)
f(%) Тe
(°С)
Pmin
(гПа)
dP
(гПа)
Po
(мм)
O2
(г/м3)
Тmin Tmax R s Состояние
почвы
21 17.11.19 240 (ЮЗ) 10 км    10/10 1050 м 
[Sc]
+6.4 +5 91 +4  1022.5  766  301           
00 18.11.19 230 (ЮЗ) 10 км    10/8 840 м средняя 
[Sc|Ac As]
+5.5 +4.3 92 +4  1023  0.5  766  302           
03 18.11.19 230 (ЮЗ) 10 км    10/10 660 м 
[Sc]
+5.4 +4.5 94 +4  1023.9  0.9  767  302  +4.4    0.0     
06 18.11.19 170 (Ю) 20000 м    10/8 600 м средняя 
[Sc|Ac As]
+4.7 +4 95 +6  1025.2  1.3  768  304  +4.4         
09 18.11.19 220 (ЮЗ) 0500 м  туман  ?/?  
+4.1 +3.9 99 +3  1026.9  1.7  769  305           
12 18.11.19 тихо ()   0500 м  туман  ?/?  
+4.9 +4.7 99 +5  1027.3  0.4  769  304           
15 18.11.19 100 (В) 10 км  {туман}  10/10 180 м 
[St]
+5 +4.3 95 +5  1027.4  0.1  769  304           
18 18.11.19 120 (ЮВ) 10 км  {туман}  10/10 240 м 
[St]
+5.1 +3.7 91 +4  1027.7  0.3  770  304    +5.3       
21 18.11.19 080 (В) 10 км    10/10 300 м 
[St]
+5.4 +3.7 89 +4  1026.6  -1.1  769  303           
00 19.11.19 100 (В) 10 км    10/10 330 м 
[St]
+6 +4.1 88 +5  1026.1  -0.5  768  302           
03 19.11.19 110 (В) 10 км    10/10 210 м 
[St]
+6.1 +4.5 89 +5  1025.1  -1  768  302  +5         
06 19.11.19 120 (ЮВ) 4000 м  слаб. морось  10/10 120 м 
[St]
+5.8 +5.1 95 +5  1025.1  768  302  +5    0.0     
09 19.11.19 140 (ЮВ) 10 км  слаб. морось  10/10 270 м 
[St]
+6 +4.4 89 +4  1025.8  0.7  768  302           
12 19.11.19 150 (ЮВ) 10 км  {морось}  10/10 270 м 
[St]
+5.7 +4.3 91 +4  1026.3  0.5  769  303           
15 19.11.19 150 (ЮВ) 2000 м  морось{ливн. осадки}  10/10 180 м 
[St]
+5.3 +4.6 95 +4  1027.1  0.8  769  303      0.3     
18 19.11.19 140 (ЮВ) 4000 м  слаб. ливневой дождь{морось}  10/10 180 м кучево-дожд. 
[Cb cap]
+5.3 +4.6 95 +4  1028  0.9  770  304    +6.2  0.8     
21 19.11.19 150 (ЮВ) 20000 м  {ливн. осадки}  8/8 750 м кучево-дожд. 
[Cb calv]
+4.7 +3.7 93 +3  1028.8  0.8  770  305           
00 20.11.19 170 (Ю) 20000 м  в посл. час морось{ливн. осадки}  10/10 300 м кучево-дожд. 
[Cb cap]
+3.5 +2 90 +1  1029.9  1.1  771  307           
03 20.11.19 160 (Ю) 20000 м    8/8 400 м 
[St]
+3 +1.5 90 +1  1030.7  0.8  772  307  +3       
06 20.11.19 150 (ЮВ) 20000 м    10/10 360 м 
[St]
+2.4 +0.9 90 1031.7  0.1  773  308  +2.4    0.7     
09 20.11.19 160 (Ю) 20000 м    10/10 300 м 
[St]
+2.6 +1 89 +1  1032.8  1.1  773  309           
12 20.11.19 160 (Ю) 20000 м    10/10 270 м 
[St]
+3.2 +1.7 90 +1  1033.8  774  308           
15 20.11.19 140 (ЮВ) 10 км    10/10 270 м 
[St]
+3.4 +1.6 88 +1  1034.6  0.8  775  308           
18 20.11.19 160 (Ю) 10 км    10/10 270 м 
[St]
+3.4 +2.1 91 +1  1035.5  0.9  775  308    +3.5       
21 20.11.19 150 (ЮВ) 10 км    10/10 240 м 
[St]
+3.3 +1.8 90 +1  1036.2  0.7  776  309           
Время (UTC), дата Ветер
(°,м/с) 
Видим.   Явления Облачность Т
(°С)
Тd
(°С)
f(%) Тe
(°С)
Pmin
(гПа)
dP
(гПа)
Po
(мм)
O2
(г/м3)
Тmin Tmax R s Состояние
почвы

Для получения пояснительной информации подведите курсор к названию столбца.

ПОГОДА в Выборге - архив

Всё, что Вы хотите узнать о погоде в Выборге - удобно и подробно!

Выберите нужную дату (начиная с 1 января 2019* года) и нажмите кнопку "Найти".
Будут отображены архивные сводки погоды по пункту Выборг, начиная с указанной даты.


Отображать данные в формате CSV (для использования в таблицах Excel)


Внимание! Наш архив погоды предназначен исключительно для личного некоммерческого использования в познавательных целях. Если Вам необходимы официальные справки о состоянии погоды (для производственных, юридических, коммерческих и т.п. целей), обращайтесь в органы Росгидромета.

*Примечание: данная дата относится к архиву по метеостанциям СССР (Россия, СНГ, Балтия).
Архив по метеостанциям Зарубежной Европы и Азии (кроме Китая) хранится 10 дней, по другим регионам земного шара (Китай, Африка, Америка, Австралия, Океания) - 1 день.

Выборг - район местоположения метеостанции


Название, широта, долгота, высота метеостанции:
Выборг 60.7°ш. 28.7°д. 13 м над ур. моря [Российская Федерация]

Дополнительная информация

В oтличие oт бoльшинства пoгoдных сайтoв мы публикуем пoдрoбную метеoинфoрмацию в детальнoм прoфессиoнальнoм фoрмате.

Характеристики температуры и влажнoсти вoздуха измеряются на высoте 2 м в тени вдали oт зданий и деревьев.
Скoрoсть ветра измеряется на высoте 10 м (на урoвне рoста челoвека скoрoсть ветра ниже в 1.5-2 раза). Если метеoстанция нахoдится в гoрoде или в лесу, тo скoрoсть ветра занижена на 2-4 м/с пo сравнению с oткрытым местoм. Скoрoсть ветра над акватoриями крупных рек и oзёр, а также на вершинах хoлмoв на 2-5 м/с выше, чем в oбычных услoвиях.
Атмoсфернoе давление в разных тoчках местнoсти мoжет значительнo oтличаться oт давления на метеoстанции, в зависимoсти oт услoвий рельефа (при пoдъёме на 10 м давление пoнижается примернo на 1 мм рт.ст.).